This is the latest recevied weather packets stored in our database for station/object K7NDG. If no packets are shown the sender has not sent any weather packets the latest 10 day(s).
| Time | Temp. | Humidity | Pressure | Rain* | Wind** | Luminosity | Snow |
|---|---|---|---|---|---|---|---|
| 1777680064 | 17.78° C | 69% | 1016.8 hPa | 0 mm | - | 301 W/m² | - |
| 1777679760 | 17.78° C | 69% | 1016.8 hPa | 0 mm | - | 376 W/m² | - |
| 1777679456 | 17.78° C | 68% | 1016.9 hPa | 0 mm | - | 247 W/m² | - |
| 1777679151 | 17.78° C | 69% | 1016.8 hPa | 0 mm | - | 214 W/m² | - |
| 1777678850 | 17.78° C | 67% | 1016.9 hPa | 0 mm | - | 202 W/m² | - |
| 1777678547 | 18.33° C | 67% | 1016.7 hPa | 0 mm | - | 388 W/m² | - |
| 1777678244 | 18.33° C | 67% | 1016.9 hPa | 0 mm | - | 456 W/m² | - |
| 1777677940 | 18.33° C | 66% | 1016.6 hPa | 0 mm | - | 492 W/m² | - |
| 1777677638 | 18.33° C | 67% | 1016.9 hPa | 0 mm | - | 525 W/m² | - |
| 1777677335 | 18.33° C | 67% | 1016.8 hPa | 0 mm | - | 541 W/m² | - |
| 1777677033 | 18.33° C | 67% | 1017.1 hPa | 0 mm | - | 525 W/m² | - |
| 1777676732 | 18.33° C | 67% | 1016.9 hPa | 0 mm | - | 621 W/m² | - |
| 1777676429 | 18.33° C | 66% | 1017.1 hPa | 0 mm | - | 615 W/m² | - |
| 1777676127 | 18.33° C | 65% | 1017.1 hPa | 0 mm | - | 652 W/m² | - |
| 1777675823 | 18.89° C | 66% | 1017.3 hPa | 0 mm | - | 615 W/m² | - |
| 1777675521 | 18.33° C | 68% | 1017.2 hPa | 0 mm | - | 635 W/m² | - |
| 1777675217 | 18.33° C | 67% | 1017.2 hPa | 0 mm | - | 598 W/m² | - |
| 1777674914 | 18.33° C | 67% | 1017.1 hPa | 0 mm | - | 596 W/m² | - |
| 1777674610 | 18.89° C | 66% | 1017.2 hPa | 0 mm | - | 643 W/m² | - |
| 1777674307 | 18.89° C | 66% | 1017.3 hPa | 0 mm | - | 561 W/m² | - |
| 1777674004 | 18.89° C | 67% | 1017.3 hPa | 0 mm | - | 602 W/m² | - |
| 1777673700 | 18.89° C | 67% | 1017.5 hPa | 0 mm | - | 667 W/m² | - |
| 1777673398 | 18.89° C | 66% | 1017.3 hPa | 0 mm | - | 592 W/m² | - |
| 1777673095 | 18.89° C | 67% | 1017.3 hPa | 0 mm | - | 641 W/m² | - |
| 1777672791 | 18.89° C | 67% | 1017.5 hPa | 0 mm | - | 606 W/m² | - |
* Rain latest hour (hover to see other rain measurements)
** Current wind speed in m/s (hover to see current wind gust speed)